Weather History for Key West NAF, FL

Change the Weather History Date:

Thursday, May 2, 2013

  Actual Average Record
Temperature  
Mean Temperature 74 °F -  
Max Temperature 81 °F 83 °F 89 °F (2011)
Min Temperature 69 °F 73 °F 65 °F (1992)
Cooling Degree Days 10    
Growing Degree Days 24 (Base 50)    
Moisture  
Dew Point 70 °F    
Average Humidity 88    
Maximum Humidity 96    
Minimum Humidity 78    
Precipitation  
Precipitation 5.26 in - - ()
Sea Level Pressure  
Sea Level Pressure 29.89 in    
Wind  
Wind Speed 9 mph (East)    
Max Wind Speed 21 mph    
Max Gust Speed 43 mph    
Visibility 7 miles    
Events Fog , Rain , Thunderstorm    
Averages and records for this station are not official NWS values.
T = Trace of Precipitation, MM = Missing Value Source: NWS Daily Summary

Daily Weather History Graph

Daily Weather History Graph

Search for Another Location

Airport:

Trip Planner

Search our weather history database for the weather conditions in past years. The results will help you decide how hot, cold, wet, or windy it might be!

Date:

Astronomy

May. 02, 2013 Rise Set
Actual Time 6:50 AM EDT 7:56 PM EDT
Civil Twilight 6:26 AM EDT 8:21 PM EDT
Nautical Twilight 5:58 AM EDT 8:49 PM EDT
Astronomical Twilight 5:29 AM EDT 9:18 PM EDT
Moon 1:50 AM EDT (5/2) 1:29 PM EDT (5/2)
Length of Visible Light 13h 54m
Length of Day
13h 06m
Waning Gibbous, 48% of the Moon is Illuminated
May 2
Waning Gibbous
May 9
New
May 18
First Quarter
May 25
Full
May 31
Last Quarter

Hourly Weather History & Observations

Time (EDT) Temp. Heat Index Dew Point Humidity Pressure Visibility Wind Dir Wind Speed Gust Speed Precip Events Conditions
12:04 AM 77.0 °F - 73.4 °F 89% 29.93 in 10.0 mi NE 4.6 mph - N/A Thunderstorm Thunderstorm
12:53 AM 75.9 °F - 73.0 °F 91% 29.92 in 4.0 mi ESE 9.2 mph - 0.06 in Rain , Thunderstorm Heavy Thunderstorms and Rain
1:02 AM 73.4 °F - 71.6 °F 94% 29.93 in 2.5 mi SE 3.5 mph - 0.09 in Rain , Thunderstorm Heavy Thunderstorms and Rain
1:12 AM 73.4 °F - 69.8 °F 88% 29.93 in 5.0 mi East 4.6 mph - 0.11 in Rain , Thunderstorm Light Thunderstorms and Rain
1:34 AM 73.4 °F - 69.8 °F 88% 29.92 in 10.0 mi East 4.6 mph - 0.11 in   Mostly Cloudy
1:53 AM 73.9 °F - 70.0 °F 87% 29.92 in 10.0 mi East 5.8 mph - 0.11 in   Partly Cloudy
2:48 AM 75.2 °F - 71.6 °F 89% 29.90 in 10.0 mi SE 5.8 mph - N/A   Scattered Clouds
2:53 AM 75.0 °F - 71.1 °F 87% 29.90 in 10.0 mi SE 5.8 mph - N/A   Partly Cloudy
3:01 AM 75.2 °F - 71.6 °F 89% 29.90 in 10.0 mi SE 4.6 mph - N/A Thunderstorm Thunderstorm
3:23 AM 75.2 °F - 69.8 °F 83% 29.89 in 10.0 mi East 6.9 mph - N/A   Partly Cloudy
3:49 AM 75.2 °F - 71.6 °F 89% 29.90 in 10.0 mi East 5.8 mph - N/A Thunderstorm Thunderstorm
3:53 AM 75.0 °F - 72.0 °F 90% 29.90 in 10.0 mi East 5.8 mph - N/A Thunderstorm Thunderstorm
3:59 AM 75.2 °F - 71.6 °F 89% 29.90 in 10.0 mi East 6.9 mph - N/A Thunderstorm Thunderstorm
4:20 AM 75.2 °F - 73.4 °F 94% 29.89 in 10.0 mi East 9.2 mph - N/A   Mostly Cloudy
4:41 AM 75.2 °F - 73.4 °F 94% 29.89 in 10.0 mi East 11.5 mph - N/A   Overcast
4:53 AM 75.9 °F - 73.0 °F 91% 29.89 in 10.0 mi East 11.5 mph - N/A   Mostly Cloudy
5:21 AM 75.2 °F - 71.6 °F 89% 29.89 in 10.0 mi ESE 11.5 mph - N/A   Mostly Cloudy
5:53 AM 75.9 °F - 71.1 °F 85% 29.88 in 10.0 mi ESE 13.8 mph - N/A   Mostly Cloudy
6:06 AM 75.2 °F - 71.6 °F 89% 29.88 in 10.0 mi ESE 12.7 mph - N/A Thunderstorm Thunderstorm
6:29 AM 75.2 °F - 69.8 °F 83% 29.89 in 10.0 mi ESE 13.8 mph - N/A   Mostly Cloudy
6:53 AM 75.9 °F - 69.1 °F 79% 29.88 in 10.0 mi ESE 16.1 mph - N/A   Mostly Cloudy
7:45 AM 77.0 °F - 71.6 °F 83% 29.87 in 10.0 mi ESE 11.5 mph - N/A   Mostly Cloudy
7:53 AM 78.1 °F - 71.1 °F 79% 29.87 in 10.0 mi ESE 15.0 mph - N/A   Mostly Cloudy
8:53 AM 79.0 °F - 72.0 °F 79% 29.88 in 10.0 mi ESE 12.7 mph - N/A   Mostly Cloudy
9:53 AM 80.1 °F 84.2 °F 73.0 °F 79% 29.89 in 10.0 mi ESE 15.0 mph - N/A   Mostly Cloudy
10:25 AM 80.6 °F 85.4 °F 73.4 °F 79% 29.89 in 10.0 mi ESE 16.1 mph - N/A   Mostly Cloudy
10:47 AM 78.8 °F - 73.4 °F 83% 29.89 in 10.0 mi ESE 15.0 mph - 0.00 in Rain , Thunderstorm Light Thunderstorms and Rain
10:53 AM 78.1 °F - 72.0 °F 81% 29.88 in 4.0 mi ESE 18.4 mph - 0.05 in Rain , Thunderstorm Light Thunderstorms and Rain
10:55 AM 77.0 °F - 71.6 °F 83% 29.88 in 1.8 mi ESE 19.6 mph - 0.08 in Rain , Thunderstorm Light Thunderstorms and Rain
11:02 AM 75.2 °F - 73.4 °F 94% 29.89 in 0.5 mi ESE 13.8 mph 24.2 mph 0.25 in Fog , Rain , Thunderstorm Thunderstorms and Rain
11:10 AM 75.2 °F - 73.4 °F 94% 29.89 in 2.0 mi ESE 11.5 mph - 0.38 in Rain , Thunderstorm Light Thunderstorms and Rain
11:16 AM 75.2 °F - 73.4 °F 94% 29.89 in 5.0 mi East 9.2 mph - 0.42 in Rain , Thunderstorm Light Thunderstorms and Rain
11:40 AM 77.0 °F - 73.4 °F 89% 29.89 in 1.0 mi SE 13.8 mph - 0.52 in Rain , Thunderstorm Light Thunderstorms and Rain
11:53 AM 73.9 °F - 69.1 °F 85% 29.88 in 5.0 mi NE 5.8 mph - 0.85 in Rain , Thunderstorm Light Thunderstorms and Rain
12:18 PM 78.8 °F - 73.4 °F 83% 29.89 in 5.0 mi East 10.4 mph - 0.00 in Rain , Thunderstorm Light Thunderstorms and Rain
12:35 PM 73.4 °F - 69.8 °F 88% 29.90 in 1.0 mi NW 16.1 mph 26.5 mph 0.24 in Rain , Thunderstorm Light Thunderstorms and Rain
12:40 PM 73.4 °F - 69.8 °F 88% 29.88 in 0.5 mi NE 16.1 mph 42.6 mph 0.55 in Rain , Thunderstorm Heavy Thunderstorms and Rain
12:53 PM 73.0 °F - 69.1 °F 87% 29.87 in 1.0 mi NNE 17.3 mph 25.3 mph 0.79 in Rain , Thunderstorm Heavy Thunderstorms and Rain
12:59 PM 71.6 °F - 66.2 °F 83% 29.87 in 4.0 mi NNE 16.1 mph 25.3 mph 0.03 in Rain , Thunderstorm Light Thunderstorms and Rain
1:53 PM 71.1 °F - 69.1 °F 93% 29.88 in 2.0 mi North 16.1 mph - 0.57 in Rain , Thunderstorm Light Thunderstorms and Rain
2:10 PM 69.8 °F - 68.0 °F 94% 29.90 in 0.1 mi West 20.7 mph 34.5 mph 0.84 in Rain , Thunderstorm Heavy Thunderstorms and Rain
2:32 PM 69.8 °F - 68.0 °F 94% 29.91 in 0.5 mi WNW 10.4 mph - 1.95 in Rain , Thunderstorm Heavy Thunderstorms and Rain
2:53 PM 69.1 °F - 68.0 °F 96% 29.91 in 0.5 mi NNW 20.7 mph 28.8 mph 2.52 in Rain , Thunderstorm Heavy Thunderstorms and Rain
2:59 PM 69.8 °F - 68.0 °F 94% 29.90 in 1.0 mi NNW 20.7 mph 28.8 mph 0.05 in Rain Rain
3:09 PM 69.8 °F - 68.0 °F 94% 29.91 in 1.0 mi NNW 16.1 mph 26.5 mph 0.10 in Rain , Thunderstorm Light Thunderstorms and Rain
3:20 PM 69.8 °F - 68.0 °F 94% 29.89 in 1.0 mi North 16.1 mph - 0.20 in Rain , Thunderstorm Light Thunderstorms and Rain
3:26 PM 69.8 °F - 68.0 °F 94% 29.89 in 4.0 mi North 13.8 mph - 0.20 in Rain , Thunderstorm Light Thunderstorms and Rain
3:36 PM 69.8 °F - 66.2 °F 88% 29.89 in 7.0 mi North 10.4 mph - 0.22 in Rain Light Rain
3:53 PM 70.0 °F - 66.9 °F 90% 29.88 in 4.0 mi NNW 10.4 mph - 0.26 in Rain Light Rain
4:53 PM 71.1 °F - 68.0 °F 90% 29.82 in 10.0 mi NNW 5.8 mph - 0.05 in   Mostly Cloudy
5:53 PM 75.0 °F - 69.8 °F 84% 29.83 in 10.0 mi ENE 5.8 mph - N/A   Mostly Cloudy
6:53 PM 73.9 °F - 69.1 °F 85% 29.82 in 10.0 mi ENE 5.8 mph - N/A   Scattered Clouds
7:53 PM 75.2 °F - 68.0 °F 78% 29.83 in 10.0 mi East 3.5 mph - N/A   Scattered Clouds
8:53 PM 72.0 °F - 69.1 °F 91% 29.83 in 10.0 mi ENE 5.8 mph - N/A   Scattered Clouds
9:53 PM 73.0 °F - 69.1 °F 87% 29.84 in 10.0 mi ENE 6.9 mph - N/A   Clear
10:53 PM 72.0 °F - 69.1 °F 91% 29.86 in 10.0 mi ENE 4.6 mph - N/A   Clear
11:53 PM 71.1 °F - 68.0 °F 90% 29.84 in 10.0 mi NE 3.5 mph - N/A   Clear